HP11 MUBA-MKBS

Flight info

Callsign HP11
Flight time 1h 20m
Altitude 6500
Route MABUJABO GUANTANAMO PLAYAJURAGUA BOSCOBEL
Aircraft DA40/L-SG/C

Departure

Time 2026-04-22 01:44
Airport Gustavo Rizo Airport (MUBA)

Arrival

Time 2026-04-22 03:05
Airport Ian Fleming International Airport (MKBS)
Time Latitude Longitude Altitude Speed Heading
2026-04-22 00:47 20.35827 -74.50391 16 ft 0 kts 219°
2026-04-22 00:49 20.35828 -74.50391 16 ft 0 kts 219°
2026-04-22 00:53 20.35827 -74.50391 12 ft 0 kts 219°
2026-04-22 01:42 20.35824 -74.50395 10 ft 0 kts 242°
2026-04-22 01:42 20.35841 -74.50404 12 ft 5 kts 24°
2026-04-22 01:42 20.35870 -74.50349 14 ft 13 kts 62°
2026-04-22 01:42 20.35837 -74.50272 14 ft 14 kts 203°
2026-04-22 01:43 20.35850 -74.50274 14 ft 16 kts 338°
2026-04-22 01:43 20.35875 -74.50286 16 ft 0 kts 335°
2026-04-22 01:43 20.35912 -74.50303 16 ft 26 kts 335°
2026-04-22 01:43 20.36226 -74.50470 25 ft 69 kts 339°
2026-04-22 01:44 20.36662 -74.50684 225 ft 71 kts 341°
2026-04-22 01:44 20.37158 -74.50903 372 ft 84 kts 339°
2026-04-22 01:44 20.37681 -74.51149 660 ft 80 kts 338°
2026-04-22 01:44 20.38232 -74.51422 731 ft 97 kts 333°
2026-04-22 01:45 20.38841 -74.51793 850 ft 101 kts 331°
2026-04-22 01:45 20.39397 -74.52147 1108 ft 91 kts 333°
2026-04-22 01:45 20.39947 -74.52491 1305 ft 86 kts 335°
2026-04-22 01:45 20.40460 -74.52833 1456 ft 91 kts 332°
2026-04-22 01:46 20.41020 -74.53200 1582 ft 95 kts 334°
2026-04-22 01:46 20.41556 -74.53541 1858 ft 85 kts 333°
2026-04-22 01:46 20.42129 -74.53875 1922 ft 97 kts 336°
2026-04-22 01:46 20.42717 -74.54289 2056 ft 100 kts 323°
2026-04-22 01:47 20.42944 -74.54979 2262 ft 109 kts 264°
2026-04-22 01:47 20.42635 -74.55711 2424 ft 113 kts 248°
2026-04-22 01:47 20.42312 -74.56439 2692 ft 106 kts 245°
2026-04-22 01:47 20.41959 -74.57184 2764 ft 119 kts 245°
2026-04-22 01:48 20.41571 -74.58010 2797 ft 130 kts 245°
2026-04-22 01:48 20.41170 -74.58902 2820 ft 136 kts 246°
2026-04-22 01:48 20.40752 -74.59831 2856 ft 142 kts 246°
2026-04-22 01:48 20.40308 -74.60786 2871 ft 145 kts 245°
2026-04-22 01:49 20.39869 -74.61761 2895 ft 146 kts 246°
2026-04-22 01:49 20.39420 -74.62728 2925 ft 144 kts 246°
2026-04-22 01:49 20.38969 -74.63689 2944 ft 145 kts 246°
2026-04-22 01:49 20.38513 -74.64647 2962 ft 143 kts 245°
2026-04-22 01:50 20.38075 -74.65590 2992 ft 142 kts 246°
2026-04-22 01:50 20.37636 -74.66537 3014 ft 141 kts 246°
2026-04-22 01:50 20.37203 -74.67486 3046 ft 145 kts 246°
2026-04-22 01:50 20.36757 -74.68445 3079 ft 144 kts 245°
2026-04-22 01:51 20.36308 -74.69394 3091 ft 142 kts 246°
2026-04-22 01:51 20.35866 -74.70339 3142 ft 143 kts 247°
2026-04-22 01:51 20.35419 -74.71266 3222 ft 140 kts 246°
2026-04-22 01:51 20.34974 -74.72189 3310 ft 140 kts 246°
2026-04-22 01:52 20.34547 -74.73108 3365 ft 139 kts 246°
2026-04-22 01:52 20.34124 -74.74040 3445 ft 140 kts 246°
2026-04-22 01:52 20.33686 -74.74975 3517 ft 142 kts 246°
2026-04-22 01:52 20.33245 -74.75922 3595 ft 144 kts 245°
2026-04-22 01:53 20.32797 -74.76897 3662 ft 148 kts 246°
2026-04-22 01:53 20.32346 -74.77865 3734 ft 144 kts 246°
2026-04-22 01:53 20.31909 -74.78828 3817 ft 145 kts 246°
2026-04-22 01:53 20.31462 -74.79806 3880 ft 148 kts 244°
2026-04-22 01:54 20.31015 -74.80770 3965 ft 145 kts 246°
2026-04-22 01:54 20.30550 -74.81741 4029 ft 148 kts 245°
2026-04-22 01:54 20.30097 -74.82712 4085 ft 145 kts 244°
2026-04-22 01:54 20.29669 -74.83652 4173 ft 142 kts 246°
2026-04-22 01:55 20.29227 -74.84587 4248 ft 141 kts 246°
2026-04-22 01:55 20.28777 -74.85526 4318 ft 143 kts 245°
2026-04-22 01:55 20.28333 -74.86470 4387 ft 142 kts 246°
2026-04-22 01:55 20.27896 -74.87395 4467 ft 140 kts 246°
2026-04-22 01:56 20.27445 -74.88315 4540 ft 141 kts 246°
2026-04-22 01:56 20.26993 -74.89259 4601 ft 143 kts 246°
2026-04-22 01:56 20.26553 -74.90192 4690 ft 140 kts 245°
2026-04-22 01:56 20.26267 -74.90793 4742 ft 137 kts 246°
2026-04-22 01:57 20.25697 -74.92020 4842 ft 138 kts 247°
2026-04-22 01:57 20.25408 -74.92624 4888 ft 138 kts 246°
2026-04-22 01:57 20.24967 -74.93536 4960 ft 139 kts 245°
2026-04-22 01:57 20.24534 -74.94455 5035 ft 139 kts 246°
2026-04-22 01:58 20.24104 -74.95375 5110 ft 139 kts 246°
2026-04-22 01:58 20.23677 -74.96282 5181 ft 136 kts 246°
2026-04-22 01:58 20.23252 -74.97195 5250 ft 138 kts 246°
2026-04-22 01:58 20.22834 -74.98105 5315 ft 136 kts 246°
2026-04-22 01:59 20.22414 -74.99016 5396 ft 138 kts 246°
2026-04-22 01:59 20.21987 -74.99937 5465 ft 138 kts 246°
2026-04-22 01:59 20.21564 -75.00859 5536 ft 138 kts 246°
2026-04-22 01:59 20.21142 -75.01773 5611 ft 138 kts 246°
2026-04-22 02:00 20.20728 -75.02674 5682 ft 136 kts 246°
2026-04-22 02:00 20.20309 -75.03586 5761 ft 138 kts 246°
2026-04-22 02:00 20.19888 -75.04505 5822 ft 138 kts 246°
2026-04-22 02:00 20.19464 -75.05417 5897 ft 137 kts 246°
2026-04-22 02:01 20.19035 -75.06325 5962 ft 137 kts 246°
2026-04-22 02:01 20.18610 -75.07224 6042 ft 135 kts 246°
2026-04-22 02:01 20.18188 -75.08120 6120 ft 136 kts 246°
2026-04-22 02:01 20.17768 -75.09023 6193 ft 136 kts 246°
2026-04-22 02:02 20.17344 -75.09934 6237 ft 140 kts 246°
2026-04-22 02:02 20.16907 -75.10877 6234 ft 144 kts 246°
2026-04-22 02:02 20.16464 -75.11840 6239 ft 146 kts 246°
2026-04-22 02:02 20.16017 -75.12819 6233 ft 147 kts 246°
2026-04-22 02:03 20.15570 -75.13802 6236 ft 148 kts 246°
2026-04-22 02:03 20.15118 -75.14789 6232 ft 148 kts 246°
2026-04-22 02:03 20.14668 -75.15775 6235 ft 148 kts 246°
2026-04-22 02:03 20.14226 -75.16747 6236 ft 147 kts 246°
2026-04-22 02:04 20.13317 -75.18703 6229 ft 147 kts 243°
2026-04-22 02:04 20.12828 -75.19658 6235 ft 147 kts 243°
2026-04-22 02:04 20.12341 -75.20617 6234 ft 147 kts 243°
2026-04-22 02:05 20.11852 -75.21577 6232 ft 148 kts 243°
2026-04-22 02:05 20.11365 -75.22539 6236 ft 148 kts 243°
2026-04-22 02:05 20.10877 -75.23504 6233 ft 148 kts 243°
2026-04-22 02:05 20.10390 -75.24467 6231 ft 148 kts 243°
2026-04-22 02:06 20.09904 -75.25429 6230 ft 147 kts 243°
2026-04-22 02:06 20.09419 -75.26389 6235 ft 147 kts 243°
2026-04-22 02:06 20.08936 -75.27347 6233 ft 147 kts 244°
2026-04-22 02:06 20.08452 -75.28303 6229 ft 147 kts 243°
2026-04-22 02:07 20.07977 -75.29245 6231 ft 146 kts 244°
2026-04-22 02:07 20.07495 -75.30199 6228 ft 146 kts 243°
2026-04-22 02:07 20.07016 -75.31151 6233 ft 146 kts 243°
2026-04-22 02:07 20.06536 -75.32106 6230 ft 146 kts 243°
2026-04-22 02:08 20.06055 -75.33064 6228 ft 147 kts 243°
2026-04-22 02:08 20.05575 -75.34020 6227 ft 147 kts 243°
2026-04-22 02:08 20.05096 -75.34977 6230 ft 147 kts 243°
2026-04-22 02:08 20.04618 -75.35937 6231 ft 147 kts 244°
2026-04-22 02:09 20.04137 -75.36899 6236 ft 148 kts 243°
2026-04-22 02:09 20.03654 -75.37867 6232 ft 148 kts 243°
2026-04-22 02:09 20.03174 -75.38834 6234 ft 148 kts 244°
2026-04-22 02:09 20.02695 -75.39801 6229 ft 147 kts 243°
2026-04-22 02:10 20.02217 -75.40763 6226 ft 147 kts 243°
2026-04-22 02:10 20.01739 -75.41725 6230 ft 147 kts 244°
2026-04-22 02:10 20.01261 -75.42684 6231 ft 147 kts 244°
2026-04-22 02:10 20.00777 -75.43648 6230 ft 147 kts 243°
2026-04-22 02:11 20.00295 -75.44614 6234 ft 148 kts 244°
2026-04-22 02:11 19.99811 -75.45583 6232 ft 149 kts 244°
2026-04-22 02:11 19.99325 -75.46552 6228 ft 148 kts 243°
2026-04-22 02:11 19.98853 -75.47493 6362 ft 141 kts 243°
2026-04-22 02:12 19.98397 -75.48401 6484 ft 137 kts 243°
2026-04-22 02:12 19.97943 -75.49313 6487 ft 142 kts 243°
2026-04-22 02:12 19.97477 -75.50250 6490 ft 145 kts 244°
2026-04-22 02:12 19.96998 -75.51207 6492 ft 148 kts 244°
2026-04-22 02:13 19.96508 -75.52183 6490 ft 150 kts 244°
2026-04-22 02:13 19.96027 -75.53146 6485 ft 148 kts 244°
2026-04-22 02:13 19.95551 -75.54104 6483 ft 145 kts 243°
2026-04-22 02:13 19.95073 -75.55053 6486 ft 146 kts 244°
2026-04-22 02:14 19.94590 -75.56008 6487 ft 147 kts 243°
2026-04-22 02:14 19.94108 -75.56970 6484 ft 147 kts 243°
2026-04-22 02:14 19.93638 -75.57912 6487 ft 144 kts 243°
2026-04-22 02:14 19.93164 -75.58859 6492 ft 146 kts 243°
2026-04-22 02:15 19.92690 -75.59806 6488 ft 148 kts 243°
2026-04-22 02:15 19.92207 -75.60770 6490 ft 148 kts 244°
2026-04-22 02:15 19.91725 -75.61737 6489 ft 148 kts 243°
2026-04-22 02:15 19.91242 -75.62704 6491 ft 148 kts 243°
2026-04-22 02:16 19.90760 -75.63670 6487 ft 148 kts 244°
2026-04-22 02:16 19.90275 -75.64633 6489 ft 148 kts 243°
2026-04-22 02:16 19.89559 -75.65412 6479 ft 149 kts 219°
2026-04-22 02:16 19.88741 -75.66081 6478 ft 148 kts 218°
2026-04-22 02:17 19.87923 -75.66744 6479 ft 148 kts 218°
2026-04-22 02:17 19.87103 -75.67404 6481 ft 148 kts 218°
2026-04-22 02:17 19.86284 -75.68065 6480 ft 148 kts 218°
2026-04-22 02:17 19.85463 -75.68727 6482 ft 148 kts 217°
2026-04-22 02:18 19.84644 -75.69389 6481 ft 148 kts 218°
2026-04-22 02:18 19.83825 -75.70055 6479 ft 148 kts 218°
2026-04-22 02:18 19.83005 -75.70719 6480 ft 148 kts 218°
2026-04-22 02:18 19.82183 -75.71382 6480 ft 148 kts 217°
2026-04-22 02:19 19.81364 -75.72046 6480 ft 148 kts 218°
2026-04-22 02:19 19.80548 -75.72707 6478 ft 148 kts 218°
2026-04-22 02:19 19.79730 -75.73369 6478 ft 148 kts 218°
2026-04-22 02:19 19.78910 -75.74032 6479 ft 148 kts 218°
2026-04-22 02:20 19.78093 -75.74694 6479 ft 148 kts 217°
2026-04-22 02:20 19.77274 -75.75360 6480 ft 148 kts 218°
2026-04-22 02:20 19.76451 -75.76026 6479 ft 149 kts 218°
2026-04-22 02:20 19.75627 -75.76693 6476 ft 149 kts 218°
2026-04-22 02:21 19.74802 -75.77363 6477 ft 150 kts 218°
2026-04-22 02:21 19.73988 -75.78024 6477 ft 149 kts 218°
2026-04-22 02:21 19.73161 -75.78694 6479 ft 149 kts 218°
2026-04-22 02:21 19.72334 -75.79363 6475 ft 149 kts 218°
2026-04-22 02:22 19.71512 -75.80029 6476 ft 149 kts 217°
2026-04-22 02:22 19.70691 -75.80696 6477 ft 149 kts 218°
2026-04-22 02:22 19.69870 -75.81365 6475 ft 149 kts 218°
2026-04-22 02:22 19.69051 -75.82032 6476 ft 149 kts 218°
2026-04-22 02:23 19.68230 -75.82699 6475 ft 149 kts 218°
2026-04-22 02:23 19.67410 -75.83366 6472 ft 149 kts 218°
2026-04-22 02:23 19.66589 -75.84037 6477 ft 149 kts 218°
2026-04-22 02:23 19.65768 -75.84707 6477 ft 149 kts 218°
2026-04-22 02:24 19.64945 -75.85377 6477 ft 149 kts 218°
2026-04-22 02:24 19.64126 -75.86046 6477 ft 149 kts 218°
2026-04-22 02:24 19.63307 -75.86718 6474 ft 149 kts 218°
2026-04-22 02:24 19.62485 -75.87390 6472 ft 149 kts 218°
2026-04-22 02:25 19.61660 -75.88063 6473 ft 149 kts 218°
2026-04-22 02:25 19.60848 -75.88726 6473 ft 149 kts 218°
2026-04-22 02:25 19.60027 -75.89397 6473 ft 149 kts 218°
2026-04-22 02:25 19.59204 -75.90070 6475 ft 149 kts 218°
2026-04-22 02:26 19.58382 -75.90741 6475 ft 149 kts 218°
2026-04-22 02:26 19.57558 -75.91410 6474 ft 149 kts 218°
2026-04-22 02:26 19.56735 -75.92079 6476 ft 149 kts 218°
2026-04-22 02:26 19.55914 -75.92750 6476 ft 149 kts 218°
2026-04-22 02:27 19.55090 -75.93423 6474 ft 149 kts 218°
2026-04-22 02:27 19.54268 -75.94095 6476 ft 149 kts 218°
2026-04-22 02:27 19.53447 -75.94766 6471 ft 149 kts 218°
2026-04-22 02:27 19.52631 -75.95439 6474 ft 148 kts 218°
2026-04-22 02:28 19.51816 -75.96110 6474 ft 149 kts 218°
2026-04-22 02:28 19.50999 -75.96783 6475 ft 149 kts 218°
2026-04-22 02:28 19.50183 -75.97456 6475 ft 149 kts 218°
2026-04-22 02:28 19.49369 -75.98126 6475 ft 148 kts 218°
2026-04-22 02:29 19.48562 -75.98791 6476 ft 149 kts 218°
2026-04-22 02:29 19.47743 -75.99465 6476 ft 149 kts 218°
2026-04-22 02:29 19.46919 -76.00136 6473 ft 149 kts 218°
2026-04-22 02:29 19.46095 -76.00808 6476 ft 150 kts 218°
2026-04-22 02:30 19.45272 -76.01485 6476 ft 150 kts 218°
2026-04-22 02:30 19.44453 -76.02160 6477 ft 149 kts 218°
2026-04-22 02:30 19.43631 -76.02831 6473 ft 149 kts 218°
2026-04-22 02:30 19.42813 -76.03501 6477 ft 148 kts 218°
2026-04-22 02:31 19.41997 -76.04172 6476 ft 148 kts 218°
2026-04-22 02:31 19.41183 -76.04845 6478 ft 148 kts 218°
2026-04-22 02:31 19.40367 -76.05517 6475 ft 149 kts 218°
2026-04-22 02:31 19.39559 -76.06180 6476 ft 149 kts 218°
2026-04-22 02:32 19.38732 -76.06863 6474 ft 149 kts 218°
2026-04-22 02:32 19.37926 -76.07529 6473 ft 149 kts 218°
2026-04-22 02:32 19.37109 -76.08205 6476 ft 149 kts 218°
2026-04-22 02:32 19.36292 -76.08878 6473 ft 148 kts 218°
2026-04-22 02:33 19.35478 -76.09547 6471 ft 148 kts 218°
2026-04-22 02:33 19.34664 -76.10218 6475 ft 148 kts 218°
2026-04-22 02:33 19.33848 -76.10892 6474 ft 149 kts 218°
2026-04-22 02:33 19.33029 -76.11566 6476 ft 149 kts 218°
2026-04-22 02:34 19.32208 -76.12241 6475 ft 149 kts 218°
2026-04-22 02:34 19.31386 -76.12920 6475 ft 150 kts 218°
2026-04-22 02:34 19.30566 -76.13600 6476 ft 150 kts 218°
2026-04-22 02:34 19.29750 -76.14273 6475 ft 150 kts 218°
2026-04-22 02:35 19.28927 -76.14953 6473 ft 150 kts 218°
2026-04-22 02:35 19.28105 -76.15632 6475 ft 150 kts 217°
2026-04-22 02:35 19.27283 -76.16308 6474 ft 150 kts 218°
2026-04-22 02:35 19.26462 -76.16983 6477 ft 149 kts 218°
2026-04-22 02:36 19.25643 -76.17658 6471 ft 149 kts 218°
2026-04-22 02:36 19.24826 -76.18332 6476 ft 148 kts 218°
2026-04-22 02:36 19.24009 -76.19005 6477 ft 148 kts 218°
2026-04-22 02:36 19.23192 -76.19679 6476 ft 149 kts 218°
2026-04-22 02:37 19.22376 -76.20354 6477 ft 149 kts 218°
2026-04-22 02:37 19.21559 -76.21029 6480 ft 149 kts 218°
2026-04-22 02:37 19.20734 -76.21707 6475 ft 150 kts 218°
2026-04-22 02:37 19.19911 -76.22388 6478 ft 151 kts 218°
2026-04-22 02:38 19.19083 -76.23071 6474 ft 151 kts 218°
2026-04-22 02:38 19.18258 -76.23748 6477 ft 150 kts 218°
2026-04-22 02:38 19.17432 -76.24427 6482 ft 150 kts 218°
2026-04-22 02:38 19.16618 -76.25096 6478 ft 150 kts 218°
2026-04-22 02:39 19.15791 -76.25776 6477 ft 150 kts 218°
2026-04-22 02:39 19.14968 -76.26450 6478 ft 150 kts 218°
2026-04-22 02:39 19.14144 -76.27126 6476 ft 149 kts 218°
2026-04-22 02:39 19.13322 -76.27799 6479 ft 149 kts 218°
2026-04-22 02:40 19.12502 -76.28472 6479 ft 149 kts 218°
2026-04-22 02:40 19.11680 -76.29149 6477 ft 150 kts 218°
2026-04-22 02:40 19.10868 -76.29817 6481 ft 150 kts 218°
2026-04-22 02:40 19.10044 -76.30494 6483 ft 150 kts 218°
2026-04-22 02:41 19.09218 -76.31175 6481 ft 150 kts 218°
2026-04-22 02:41 19.08396 -76.31853 6483 ft 150 kts 218°
2026-04-22 02:41 19.07577 -76.32529 6479 ft 149 kts 218°
2026-04-22 02:41 19.06760 -76.33203 6475 ft 149 kts 218°
2026-04-22 02:42 19.05944 -76.33878 6478 ft 149 kts 218°
2026-04-22 02:42 19.05127 -76.34555 6473 ft 150 kts 218°
2026-04-22 02:42 19.04310 -76.35231 6480 ft 149 kts 218°
2026-04-22 02:42 19.03491 -76.35911 6478 ft 150 kts 218°
2026-04-22 02:43 19.02667 -76.36592 6480 ft 151 kts 218°
2026-04-22 02:43 19.01843 -76.37277 6480 ft 151 kts 218°
2026-04-22 02:43 19.01021 -76.37965 6481 ft 151 kts 218°
2026-04-22 02:43 19.00200 -76.38652 6477 ft 150 kts 218°
2026-04-22 02:44 18.99380 -76.39337 6476 ft 150 kts 218°
2026-04-22 02:44 18.98562 -76.40021 6478 ft 149 kts 218°
2026-04-22 02:44 18.97747 -76.40699 6477 ft 149 kts 218°
2026-04-22 02:44 18.96936 -76.41379 6477 ft 149 kts 218°
2026-04-22 02:45 18.96125 -76.42063 6480 ft 149 kts 218°
2026-04-22 02:45 18.95313 -76.42747 6476 ft 150 kts 218°
2026-04-22 02:45 18.94775 -76.43201 6477 ft 149 kts 218°
2026-04-22 02:45 18.93690 -76.44122 6479 ft 150 kts 218°
2026-04-22 02:46 18.93150 -76.44581 6479 ft 150 kts 218°
2026-04-22 02:46 18.92070 -76.45501 6477 ft 151 kts 218°
2026-04-22 02:46 18.91255 -76.46198 6476 ft 151 kts 218°
2026-04-22 02:46 18.90705 -76.46669 6476 ft 151 kts 218°
2026-04-22 02:47 18.89886 -76.47369 6475 ft 151 kts 218°
2026-04-22 02:47 18.89078 -76.48057 6473 ft 151 kts 218°
2026-04-22 02:47 18.88259 -76.48753 6477 ft 151 kts 218°
2026-04-22 02:47 18.87431 -76.49456 6472 ft 151 kts 218°
2026-04-22 02:48 18.86627 -76.50140 6475 ft 151 kts 218°
2026-04-22 02:48 18.85811 -76.50835 6472 ft 151 kts 218°
2026-04-22 02:48 18.84996 -76.51528 6470 ft 150 kts 218°
2026-04-22 02:48 18.84182 -76.52223 6468 ft 150 kts 219°
2026-04-22 02:49 18.83368 -76.52918 6472 ft 151 kts 218°
2026-04-22 02:49 18.82554 -76.53618 6470 ft 151 kts 218°
2026-04-22 02:49 18.81739 -76.54319 6472 ft 151 kts 218°
2026-04-22 02:49 18.80922 -76.55021 6468 ft 151 kts 218°
2026-04-22 02:50 18.80104 -76.55726 6473 ft 152 kts 218°
2026-04-22 02:50 18.79288 -76.56435 6467 ft 151 kts 218°
2026-04-22 02:50 18.78481 -76.57133 6470 ft 152 kts 218°
2026-04-22 02:50 18.77665 -76.57837 6466 ft 151 kts 218°
2026-04-22 02:51 18.76849 -76.58538 6470 ft 151 kts 218°
2026-04-22 02:51 18.76036 -76.59240 6466 ft 151 kts 218°
2026-04-22 02:51 18.75222 -76.59941 6465 ft 151 kts 218°
2026-04-22 02:51 18.74409 -76.60643 6465 ft 151 kts 218°
2026-04-22 02:52 18.73594 -76.61348 6466 ft 151 kts 218°
2026-04-22 02:52 18.72780 -76.62050 6462 ft 151 kts 218°
2026-04-22 02:52 18.71972 -76.62756 6461 ft 151 kts 219°
2026-04-22 02:52 18.71157 -76.63459 6460 ft 151 kts 218°
2026-04-22 02:53 18.70344 -76.64167 6462 ft 151 kts 218°
2026-04-22 02:53 18.69544 -76.64864 6463 ft 152 kts 218°
2026-04-22 02:53 18.68733 -76.65574 6465 ft 151 kts 218°
2026-04-22 02:53 18.67920 -76.66285 6459 ft 152 kts 218°
2026-04-22 02:54 18.67108 -76.66998 6461 ft 152 kts 219°
2026-04-22 02:54 18.66292 -76.67709 6460 ft 151 kts 218°
2026-04-22 02:54 18.65478 -76.68418 6460 ft 152 kts 218°
2026-04-22 02:54 18.64666 -76.69126 6458 ft 152 kts 218°
2026-04-22 02:55 18.63830 -76.69852 6318 ft 158 kts 219°
2026-04-22 02:55 18.62993 -76.70585 6172 ft 155 kts 219°
2026-04-22 02:55 18.62169 -76.71306 6021 ft 153 kts 218°
2026-04-22 02:55 18.61345 -76.72008 5868 ft 151 kts 217°
2026-04-22 02:56 18.60527 -76.72679 5725 ft 148 kts 217°
2026-04-22 02:56 18.59727 -76.73329 5575 ft 146 kts 216°
2026-04-22 02:56 18.58929 -76.73987 5432 ft 145 kts 217°
2026-04-22 02:56 18.58135 -76.74641 5285 ft 145 kts 217°
2026-04-22 02:57 18.57341 -76.75298 5139 ft 145 kts 216°
2026-04-22 02:57 18.56549 -76.75958 4999 ft 145 kts 217°
2026-04-22 02:57 18.55755 -76.76620 4853 ft 145 kts 217°
2026-04-22 02:57 18.54966 -76.77280 4703 ft 144 kts 217°
2026-04-22 02:58 18.54177 -76.77938 4552 ft 144 kts 217°
2026-04-22 02:58 18.53390 -76.78589 4405 ft 143 kts 217°
2026-04-22 02:58 18.52619 -76.79236 4256 ft 144 kts 217°
2026-04-22 02:58 18.51838 -76.79895 4114 ft 144 kts 217°
2026-04-22 02:59 18.51068 -76.80557 4002 ft 141 kts 218°
2026-04-22 02:59 18.50320 -76.81241 3828 ft 144 kts 220°
2026-04-22 02:59 18.49571 -76.81946 3647 ft 146 kts 220°
2026-04-22 02:59 18.48784 -76.82635 3451 ft 149 kts 217°
2026-04-22 03:00 18.48003 -76.83340 3317 ft 144 kts 220°
2026-04-22 03:00 18.47256 -76.84044 3114 ft 147 kts 220°
2026-04-22 03:00 18.46487 -76.84762 2867 ft 148 kts 219°
2026-04-22 03:00 18.45712 -76.85494 2548 ft 151 kts 220°
2026-04-22 03:01 18.44946 -76.86221 2311 ft 146 kts 217°
2026-04-22 03:01 18.44160 -76.86885 2026 ft 145 kts 216°
2026-04-22 03:01 18.43395 -76.87569 1844 ft 140 kts 219°
2026-04-22 03:01 18.42673 -76.88217 1605 ft 136 kts 218°
2026-04-22 03:02 18.41946 -76.88838 1337 ft 134 kts 216°
2026-04-22 03:02 18.41214 -76.89429 1117 ft 131 kts 218°
2026-04-22 03:02 18.40653 -76.90145 1088 ft 122 kts 247°
2026-04-22 03:02 18.40516 -76.91015 914 ft 120 kts 272°
2026-04-22 03:03 18.40552 -76.91868 805 ft 114 kts 276°
2026-04-22 03:03 18.40597 -76.92685 722 ft 106 kts 272°
2026-04-22 03:03 18.40591 -76.93399 615 ft 92 kts 271°
2026-04-22 03:03 18.40565 -76.94054 418 ft 92 kts 269°
2026-04-22 03:04 18.40556 -76.94721 341 ft 84 kts 269°
2026-04-22 03:04 18.40530 -76.95330 220 ft 81 kts 265°
2026-04-22 03:04 18.40478 -76.95908 152 ft 78 kts 266°
2026-04-22 03:04 18.40449 -76.96456 41 ft 67 kts 266°
2026-04-22 03:05 18.40422 -76.96825 52 ft 28 kts 259°
2026-04-22 03:05 18.40437 -76.96974 59 ft 17 kts
2026-04-22 03:05 18.40473 -76.96977 55 ft 0 kts 359°
2026-04-22 03:05 18.40488 -76.96970 56 ft 3 kts 68°
2026-04-22 03:06 18.40474 -76.96953 53 ft 5 kts 176°
2026-04-22 03:06 18.40464 -76.96953 55 ft 0 kts 176°